N808EH KDEN-KFNL

Flight info

Callsign N808EH
Flight time 0h 30m
Altitude VFR
Route /FF/
Aircraft P28A/L-DOV/C

Departure

Time 2026-05-07 03:51
Airport Denver International Airport (KDEN)

Arrival

Time 2026-05-07 04:21
Airport Northern Colorado Regional Airport (KFNL)
Time Latitude Longitude Altitude Speed Heading
2026-05-07 03:38 39.83895 -104.66422 5359 ft 0 kts 92°
2026-05-07 03:40 39.83895 -104.66421 5359 ft 0 kts 92°
2026-05-07 03:40 39.83904 -104.66407 5359 ft 4 kts 51°
2026-05-07 03:40 39.83942 -104.66377 5359 ft 9 kts 19°
2026-05-07 03:41 39.84005 -104.66348 5359 ft 9 kts 50°
2026-05-07 03:41 39.84015 -104.66281 5359 ft 9 kts 83°
2026-05-07 03:41 39.84081 -104.66250 5359 ft 14 kts 359°
2026-05-07 03:41 39.84195 -104.66250 5359 ft 19 kts
2026-05-07 03:42 39.84334 -104.66247 5360 ft 21 kts
2026-05-07 03:42 39.84488 -104.66246 5360 ft 23 kts
2026-05-07 03:42 39.84641 -104.66244 5360 ft 22 kts
2026-05-07 03:42 39.84793 -104.66242 5360 ft 22 kts
2026-05-07 03:43 39.84941 -104.66240 5360 ft 21 kts
2026-05-07 03:43 39.85084 -104.66239 5360 ft 20 kts
2026-05-07 03:43 39.85225 -104.66237 5360 ft 20 kts 360°
2026-05-07 03:43 39.85347 -104.66235 5360 ft 15 kts
2026-05-07 03:44 39.85444 -104.66234 5360 ft 13 kts
2026-05-07 03:44 39.85526 -104.66233 5360 ft 10 kts
2026-05-07 03:44 39.85596 -104.66234 5360 ft 10 kts
2026-05-07 03:44 39.85656 -104.66233 5360 ft 0 kts
2026-05-07 03:45 39.85658 -104.66233 5360 ft 0 kts 360°
2026-05-07 03:45 39.85689 -104.66233 5360 ft 9 kts
2026-05-07 03:45 39.85777 -104.66232 5360 ft 14 kts
2026-05-07 03:45 39.85856 -104.66231 5360 ft 14 kts
2026-05-07 03:46 39.85944 -104.66230 5360 ft 15 kts
2026-05-07 03:46 39.86069 -104.66228 5360 ft 21 kts
2026-05-07 03:46 39.86232 -104.66227 5360 ft 26 kts
2026-05-07 03:46 39.86409 -104.66224 5360 ft 24 kts
2026-05-07 03:47 39.86577 -104.66222 5360 ft 24 kts
2026-05-07 03:47 39.86741 -104.66221 5360 ft 23 kts
2026-05-07 03:47 39.86898 -104.66218 5360 ft 22 kts
2026-05-07 03:47 39.87051 -104.66216 5360 ft 22 kts
2026-05-07 03:48 39.87199 -104.66215 5360 ft 21 kts
2026-05-07 03:48 39.87345 -104.66213 5360 ft 21 kts
2026-05-07 03:48 39.87487 -104.66211 5360 ft 20 kts 360°
2026-05-07 03:48 39.87627 -104.66208 5360 ft 20 kts
2026-05-07 03:49 39.87753 -104.66204 5360 ft 16 kts 20°
2026-05-07 03:49 39.87762 -104.66177 5360 ft 0 kts 94°
2026-05-07 03:49 39.87762 -104.66176 5360 ft 0 kts 94°
2026-05-07 03:49 39.87760 -104.66018 5360 ft 40 kts 91°
2026-05-07 03:50 39.87757 -104.65479 5388 ft 73 kts 90°
2026-05-07 03:50 39.87778 -104.64788 5534 ft 77 kts 95°
2026-05-07 03:50 39.87788 -104.64085 5701 ft 80 kts 94°
2026-05-07 03:50 39.88005 -104.63410 5879 ft 90 kts 49°
2026-05-07 03:51 39.88583 -104.63095 6057 ft 92 kts 14°
2026-05-07 03:51 39.89240 -104.62950 6208 ft 99 kts
2026-05-07 03:51 39.89934 -104.62801 6406 ft 101 kts
2026-05-07 03:51 39.90629 -104.62647 6611 ft 101 kts
2026-05-07 03:52 39.91323 -104.62488 6742 ft 101 kts
2026-05-07 03:52 39.92021 -104.62380 6894 ft 100 kts
2026-05-07 03:52 39.92706 -104.62279 7055 ft 99 kts
2026-05-07 03:52 39.93391 -104.62212 7201 ft 97 kts 352°
2026-05-07 03:53 39.93969 -104.62531 7330 ft 89 kts 310°
2026-05-07 03:53 39.94111 -104.63268 7460 ft 84 kts 260°
2026-05-07 03:53 39.94042 -104.63999 7624 ft 81 kts 270°
2026-05-07 03:53 39.94052 -104.64756 7688 ft 89 kts 275°
2026-05-07 03:54 39.94130 -104.65594 7697 ft 95 kts 281°
2026-05-07 03:54 39.94256 -104.66439 7743 ft 97 kts 284°
2026-05-07 03:54 39.94468 -104.67308 7711 ft 103 kts 294°
2026-05-07 03:54 39.94802 -104.68157 7663 ft 108 kts 300°
2026-05-07 03:55 39.95245 -104.68959 7647 ft 109 kts 309°
2026-05-07 03:55 39.95773 -104.69659 7658 ft 108 kts 315°
2026-05-07 03:55 39.96357 -104.70280 7636 ft 106 kts 322°
2026-05-07 03:55 39.96971 -104.70816 7568 ft 106 kts 324°
2026-05-07 03:56 39.97592 -104.71344 7487 ft 106 kts 326°
2026-05-07 03:56 39.98006 -104.71635 7509 ft 100 kts 331°
2026-05-07 03:56 39.98647 -104.71987 7503 ft 99 kts 336°
2026-05-07 03:56 39.99309 -104.72264 7454 ft 102 kts 340°
2026-05-07 03:57 39.99980 -104.72479 7498 ft 96 kts 343°
2026-05-07 03:57 40.00638 -104.72641 7508 ft 96 kts 345°
2026-05-07 03:57 40.01295 -104.72824 7489 ft 97 kts 341°
2026-05-07 03:57 40.02127 -104.73186 7493 ft 94 kts 334°
2026-05-07 03:58 40.02537 -104.73406 7492 ft 95 kts 334°
2026-05-07 03:58 40.03139 -104.73734 7498 ft 94 kts 332°
2026-05-07 03:58 40.03737 -104.74087 7498 ft 93 kts 331°
2026-05-07 03:58 40.04332 -104.74438 7493 ft 94 kts 332°
2026-05-07 03:59 40.04915 -104.74788 7506 ft 93 kts 330°
2026-05-07 03:59 40.05493 -104.75167 7532 ft 90 kts 328°
2026-05-07 03:59 40.06046 -104.75568 7550 ft 92 kts 326°
2026-05-07 03:59 40.06588 -104.75983 7589 ft 90 kts 326°
2026-05-07 04:00 40.07122 -104.76395 7599 ft 90 kts 326°
2026-05-07 04:00 40.07661 -104.76815 7605 ft 91 kts 326°
2026-05-07 04:00 40.08224 -104.77231 7634 ft 91 kts 328°
2026-05-07 04:00 40.08779 -104.77617 7649 ft 92 kts 328°
2026-05-07 04:01 40.09352 -104.78010 7645 ft 93 kts 329°
2026-05-07 04:01 40.09940 -104.78389 7590 ft 99 kts 331°
2026-05-07 04:01 40.10567 -104.78778 7567 ft 98 kts 332°
2026-05-07 04:01 40.11181 -104.79114 7580 ft 97 kts 334°
2026-05-07 04:02 40.11809 -104.79427 7590 ft 95 kts 337°
2026-05-07 04:02 40.12449 -104.79690 7572 ft 98 kts 340°
2026-05-07 04:02 40.13093 -104.79923 7604 ft 96 kts 341°
2026-05-07 04:02 40.13748 -104.80131 7603 ft 97 kts 342°
2026-05-07 04:03 40.14390 -104.80374 7615 ft 95 kts 337°
2026-05-07 04:03 40.15009 -104.80683 7613 ft 95 kts 335°
2026-05-07 04:03 40.15632 -104.80977 7611 ft 96 kts 338°
2026-05-07 04:03 40.16279 -104.81218 7598 ft 97 kts 341°
2026-05-07 04:04 40.16943 -104.81400 7597 ft 98 kts 346°
2026-05-07 04:04 40.17602 -104.81576 7607 ft 96 kts 340°
2026-05-07 04:04 40.18234 -104.81766 7636 ft 92 kts 341°
2026-05-07 04:04 40.18842 -104.82061 7609 ft 93 kts 335°
2026-05-07 04:05 40.19441 -104.82341 7635 ft 91 kts 335°
2026-05-07 04:05 40.19998 -104.82738 7603 ft 91 kts 320°
2026-05-07 04:05 40.20516 -104.83181 7625 ft 89 kts 323°
2026-05-07 04:05 40.21033 -104.83625 7606 ft 90 kts 323°
2026-05-07 04:06 40.21557 -104.84069 7612 ft 90 kts 323°
2026-05-07 04:06 40.22085 -104.84517 7611 ft 90 kts 323°
2026-05-07 04:06 40.22610 -104.84962 7613 ft 90 kts 323°
2026-05-07 04:06 40.23130 -104.85405 7619 ft 89 kts 323°
2026-05-07 04:07 40.23652 -104.85850 7614 ft 90 kts 323°
2026-05-07 04:07 40.24171 -104.86297 7615 ft 89 kts 321°
2026-05-07 04:07 40.24769 -104.86616 7554 ft 98 kts 343°
2026-05-07 04:07 40.25395 -104.86840 7607 ft 91 kts 339°
2026-05-07 04:08 40.26023 -104.87084 7558 ft 94 kts 334°
2026-05-07 04:08 40.26620 -104.87388 7585 ft 92 kts 335°
2026-05-07 04:08 40.27226 -104.87694 7577 ft 93 kts 334°
2026-05-07 04:08 40.27828 -104.87998 7559 ft 93 kts 334°
2026-05-07 04:09 40.28432 -104.88297 7562 ft 93 kts 334°
2026-05-07 04:09 40.29040 -104.88594 7562 ft 93 kts 334°
2026-05-07 04:09 40.29643 -104.88890 7562 ft 93 kts 335°
2026-05-07 04:09 40.30247 -104.89186 7570 ft 92 kts 334°
2026-05-07 04:10 40.30849 -104.89478 7557 ft 92 kts 334°
2026-05-07 04:10 40.31453 -104.89777 7552 ft 93 kts 333°
2026-05-07 04:10 40.32045 -104.90099 7567 ft 92 kts 333°
2026-05-07 04:10 40.32637 -104.90422 7583 ft 91 kts 332°
2026-05-07 04:11 40.33228 -104.90740 7563 ft 93 kts 332°
2026-05-07 04:11 40.33821 -104.91065 7570 ft 92 kts 333°
2026-05-07 04:11 40.34425 -104.91399 7473 ft 96 kts 332°
2026-05-07 04:11 40.35031 -104.91731 7360 ft 97 kts 333°
2026-05-07 04:12 40.35666 -104.92087 7194 ft 100 kts 333°
2026-05-07 04:12 40.36297 -104.92456 7080 ft 100 kts 333°
2026-05-07 04:12 40.36933 -104.92841 6946 ft 101 kts 333°
2026-05-07 04:12 40.37565 -104.93239 6832 ft 98 kts 328°
2026-05-07 04:13 40.38191 -104.93612 6667 ft 99 kts 333°
2026-05-07 04:13 40.38767 -104.93967 6529 ft 98 kts 335°
2026-05-07 04:13 40.39411 -104.94314 6422 ft 95 kts 334°
2026-05-07 04:13 40.39989 -104.94719 6333 ft 94 kts 332°
2026-05-07 04:14 40.40590 -104.95034 6362 ft 92 kts 338°
2026-05-07 04:14 40.41185 -104.95301 6413 ft 89 kts 338°
2026-05-07 04:14 40.41758 -104.95561 6467 ft 85 kts 338°
2026-05-07 04:14 40.42325 -104.95803 6487 ft 86 kts 340°
2026-05-07 04:15 40.42900 -104.96035 6504 ft 87 kts 340°
2026-05-07 04:15 40.43481 -104.96291 6500 ft 89 kts 338°
2026-05-07 04:15 40.44068 -104.96546 6523 ft 90 kts 339°
2026-05-07 04:15 40.44677 -104.96811 6514 ft 93 kts 339°
2026-05-07 04:16 40.45239 -104.97174 6531 ft 89 kts 320°
2026-05-07 04:16 40.45638 -104.97783 6523 ft 88 kts 300°
2026-05-07 04:16 40.45771 -104.98542 6514 ft 86 kts 265°
2026-05-07 04:16 40.45626 -104.99290 6547 ft 84 kts 254°
2026-05-07 04:17 40.45493 -105.00042 6558 ft 85 kts 259°
2026-05-07 04:17 40.45366 -105.00796 6566 ft 84 kts 256°
2026-05-07 04:17 40.45149 -105.01505 6584 ft 84 kts 248°
2026-05-07 04:17 40.44868 -105.02196 6552 ft 87 kts 237°
2026-05-07 04:18 40.44331 -105.02571 6370 ft 92 kts 191°
2026-05-07 04:18 40.43700 -105.02389 6161 ft 93 kts 164°
2026-05-07 04:18 40.43116 -105.02103 5971 ft 88 kts 168°
2026-05-07 04:18 40.42532 -105.01848 5804 ft 87 kts 166°
2026-05-07 04:19 40.41981 -105.01621 5627 ft 82 kts 170°
2026-05-07 04:19 40.41493 -105.01256 5533 ft 81 kts 142°
2026-05-07 04:19 40.41280 -105.00581 5485 ft 86 kts 97°
2026-05-07 04:19 40.41437 -104.99838 5583 ft 83 kts 59°
2026-05-07 04:20 40.41912 -104.99572 5532 ft 75 kts 343°
2026-05-07 04:20 40.42331 -104.99979 5428 ft 77 kts 329°
2026-05-07 04:20 40.42871 -105.00175 5270 ft 81 kts 338°
2026-05-07 04:21 40.43908 -105.00663 5048 ft 78 kts 339°
2026-05-07 04:21 40.44381 -105.00883 5000 ft 61 kts 340°
2026-05-07 04:21 40.44677 -105.01016 5000 ft 19 kts 344°
2026-05-07 04:21 40.44798 -105.01012 4999 ft 17 kts
2026-05-07 04:22 40.44854 -105.00998 4999 ft 0 kts 10°
2026-05-07 04:23 40.44862 -105.00997 4999 ft 3 kts 10°
2026-05-07 04:23 40.44902 -105.00987 4999 ft 8 kts
2026-05-07 04:23 40.44944 -105.00918 4998 ft 12 kts 71°
2026-05-07 04:23 40.44966 -105.00812 4999 ft 12 kts 109°
2026-05-07 04:24 40.44987 -105.00782 4999 ft 3 kts 253°
2026-05-07 04:24 40.44987 -105.00784 4998 ft 0 kts 238°